Regional Weather Roundup
Issued by NWS

Home | Current Version | Previous Version | Graphics & Text | Print | Product List | Glossary On
Versions: 1 2 3 4 5 6 7 8 9 10 11 12 13 14 15 16 17 18 19 20 21 22 23 24 25 26 27 28 29 30 31 32 33 34 35 36 37 38 39 40 41 42 43 44 45 46 47 48 49 50
000
ASUS44 KMEG 300000
RWRTN
TENNESSEE HOURLY STATE WEATHER ROUNDUP
NATIONAL WEATHER SERVICE MEMPHIS TN
700 PM CDT FRI MAY 29 2015

TNZ002-004-019-021-049-052-054-088>092-300100-
WEST TENNESSEE

CITY           SKY/WX    TMP DP  RH WIND       PRES   REMARKS
MEMPHIS INTL   CLOUDY    78  69  73 SE10      29.99F
NWS MEMPHIS      N/A     74 N/A N/A MISG        N/A
JACKSON        MOSUNNY   81  68  64 S6        30.01S
DYERSBURG      MOSUNNY   81  59  47 S5        30.00S
PARIS          SUNNY     79  66  65 SE7       30.03R
LEXINGTON      SUNNY     79  68  69 S3        30.03S
$$

TNZ008-025-027-028-033-062-065-066-300100-
NORTH MIDDLE TENNESSEE

CITY           SKY/WX    TMP DP  RH WIND       PRES   REMARKS
NASHVILLE      PTCLDY    75  68  78 CALM      30.07S
CLARKSVILLE    SUNNY     80  67  64 S7        30.04S
COOKEVILLE     CLEAR     75  66  73 S7        30.11R
CROSSVILLE     PTCLDY    72  63  73 VRB3      30.16F
$$

TNZ061-075-076-078-094-096-097-300100-
SOUTH MIDDLE TENNESSEE

CITY           SKY/WX    TMP DP  RH WIND       PRES   REMARKS
FAYETTEVILLE   CLEAR    N/A N/A N/A MISG      30.11R
TULLAHOMA      CLEAR     77  64  65 S7        30.12R
WINCHESTER     CLEAR     77  66  69 SE10      30.11S
MCMINNVILLE    CLEAR     77  68  73 VRB5      30.11S
COLUMBIA       MOCLDY    81  70  69 SE3       30.06R
SHELBYVILLE    PTCLDY    81  70  69 SE6       30.10R
$$

TNZ017-018-042-046-047-300100-
NORTHEAST TENNESSEE

CITY           SKY/WX    TMP DP  RH WIND       PRES   REMARKS
TRI CITIES     MOCLDY    72  64  76 CALM      30.18S
ELIZABETHTON   PTCLDY    70  68  94 E3        30.19S
$$

TNZ012-013-036-069-073-074-300100-
CENTRAL EAST TENNESSEE

CITY           SKY/WX    TMP DP  RH WIND       PRES   REMARKS
KNOXVILLE      LGT RAIN  74  66  76 E3        30.13S
OAK RIDGE      PTCLDY    79  65  62 W6        30.15R
GATLINBURG     MOCLDY    73  70  88 CALM      30.14S
$$

TNZ083-085-099-300100-
SOUTHEAST TENNESSEE

CITY           SKY/WX    TMP DP  RH WIND       PRES   REMARKS
CHATTANOOGA    MOCLDY    76  69  79 N3        30.12S
$$

SKY/WX REPORTED AS FAIR MEANS FEW OR NO CLOUDS BELOW
12 THOUSAND FEET.



USA.gov is the U.S. government's official web portal to all federal, state and local government web resources and services.